NOAA 16 DEB

Satellite information

Favourite Embed

Satellite Type and Status

DEBRISIN ORBIT

Key statistics

Satellite NOAA 16 DEB at a glance.

Uptime

9214

Days in orbit

Revolutions

≈ 15.1

Per day

Orbit

SSO

Sun Synchronous Orbit

Inclination

98.9

Latest

Satellite identification and parameters

Extended collection of information and parameters for NOAA 16 DEB.

Object identification

Identified? True

Debris? True

Object name: NOAA 16 DEB

International designator: 2000-055SL

Object number (NORAD): 42392

Object ID (CCSDS): 42392

Country: UNITED STATES OF AMERICA (US)

Current information (Y/N): Y

RCS size: SMALL

Orbital parameters

Period: 95.589 minutes

Inclination: 98.9425 deg

SMA: 6925.182 km

Apoapsis: 551.216 km

Periapsis: 542.878 km

RAAN: 203.6801 deg

Eccentricy: 0.00060198

Argument of periapsis: 286.875 deg

Mean anomaly: 73.1813 deg

Mean motion: 15.06454277 rev/day

Mean motion (dot): 0.00152012 rev/day2

B* drag term: 0.010091179 1/REarth

Two-line elements (TLE)

Creation date: Dec. 8, 2025, 3:46 a.m.

Reference frame: TEME

Reference center: EARTH

Epoch: Dec. 7, 2025, 9:16 p.m. UTC

TLE line 0: 0 NOAA 16 DEB

TLE line 1: 1 42392U 00055SL 25341.88653622 .00152012 00000-0 10091-1 0 9998

TLE line 2: 2 42392 98.9425 203.6801 0006020 286.8750 73.1813 15.06454277508099

Live tracking on map

Real-time ground track for satellite NOAA 16 DEB.

In-orbit conjunctions

A list of the most updated potential collisions computed for object NOAA 16 DEB.

Target Orbit TCA Probability of collision Miss distance Type
ORBVIEW 1 (MICROLAB) LEO 2025-01-26 17:32:04 0.00109872 185.0 (m) PAYLOAD
ORBVIEW 1 (MICROLAB) LEO 2025-01-26 15:53:43 0.0006778677 270.0 (m) PAYLOAD

Associated space launch

The NOAA K, L and M POES satellites begin the fifth generation of improved environmental monitoring in support of NOAA missions. The instrument payload has significant improvements and additions/deletions. The instrument changes have effected the spacecraft subsystems and data formats.

NOAA 16 DEB was lifted into orbit during the mission ‘Titan II SLV | NOAA 16’, on board a Titan II SLV space rocket.

The launch took place on Sept. 21, 2000, 10:22 a.m. from Space Launch Complex 4W.

For more information about the launch, click the button.

Launch to space Titan II SLV | NOAA 16
Titan II SLV | NOAA 16

Agency: N/A

Status: Launch Successful

Launch date: Sept. 21, 2000, 10:22 a.m. UTC

Rocket: Titan II SLV

Launch pad: Space Launch Complex 4W

Location: Vandenberg SFB, CA, USA

...

Latest news about this satellite

There are no fresh news available about this satellite. Check back as we update our databases every day.


Newsletter sign-up

Weekly statistics, charts and insights to help you stay on top of the space industry.